{"data":{"norad_id":68785,"intl_designator":"2026-086V","name":"STARLINK-37335","alt_names":[],"object_type":"PAYLOAD","status":"ACTIVE","operator":null,"country":"US","launch_date":"2026-04-19","launch_site_code":"AFWTR","launch_vehicle":null,"mission":null,"orbit_class":"UNKNOWN","rcs_meters":null,"size_class":null,"mass_kg":null,"dimensions":null,"purposes":["comms"],"wikipedia_slug":null,"has_3d_model":false,"image_url":null,"decayed_at":null,"tle_current":{"epoch":"2026-05-25T00:33:35.141760Z","epoch_age_seconds":76308,"freshness":"FRESH","line1":"1 68785U 26086V   26145.02332340  .00279013  00000+0  17243-2 0  9991","line2":"2 68785  97.2856 181.9167 0001788 266.0753  94.0308 15.76321383  5513","mean_motion":15.76321383,"eccentricity":0.0001788,"inclination_deg":97.2856,"raan_deg":181.9167,"arg_perigee_deg":266.0753,"mean_anomaly_deg":94.0308,"bstar":0.0017243,"rev_number":551,"period_min":91.351929595692,"perigee_km":339.67230041139,"apogee_km":342.07501862324,"semimajor_km":6719.0106595173,"source":"CELESTRAK","updated_at":"2026-05-25T13:38:22.038408Z"}}}